contact:dominique.lefevre@mio.osupytheas.fr, maurice.libes@osupytheas.fr, didier.mallarino@osupytheas.fr
Project:EMSO http://www.emso-fr.org/EMSO-France
Depth: 2436.0 m
Title:EMSO Ligure Ouest : Data MII capteur MICROCAT
DateTime_Computer,Latitude,Longitude,Temperature,Conductivity,Pressure,DateTime_Instrument
DateTime_Computer,Latitude,Longitude,degC,S m-1,dbar,DateTime_Instrument
2023-12-06T00:00:10Z,42.805,6.029,13.3043,4.60124,2470.707,2023-12-06T02:02:39Z
2023-12-06T00:03:13Z,42.805,6.029,13.3046,4.60120,2470.693,2023-12-06T02:05:42Z
2023-12-06T00:06:16Z,42.805,6.029,13.3044,4.60120,2470.717,2023-12-06T02:08:45Z
2023-12-06T00:09:19Z,42.805,6.029,13.3046,4.60126,2470.754,2023-12-06T02:11:48Z
2023-12-06T00:12:22Z,42.805,6.029,13.3046,4.60121,2470.717,2023-12-06T02:14:51Z
2023-12-06T00:15:25Z,42.805,6.029,13.3046,4.60121,2470.693,2023-12-06T02:17:54Z
2023-12-06T00:18:28Z,42.805,6.029,13.3044,4.60122,2470.717,2023-12-06T02:20:57Z
2023-12-06T00:21:31Z,42.805,6.029,13.3047,4.60120,2470.717,2023-12-06T02:24:00Z
2023-12-06T00:24:34Z,42.805,6.029,13.3046,4.60121,2470.74,2023-12-06T02:27:03Z
2023-12-06T00:27:37Z,42.805,6.029,13.3046,4.60123,2470.707,2023-12-06T02:30:06Z
2023-12-06T00:30:40Z,42.805,6.029,13.3046,4.60121,2470.754,2023-12-06T02:33:09Z
2023-12-06T00:33:43Z,42.805,6.029,13.3048,4.60121,2470.707,2023-12-06T02:36:12Z
2023-12-06T00:36:47Z,42.805,6.029,13.3047,4.60121,2470.73,2023-12-06T02:39:15Z
2023-12-06T00:39:50Z,42.805,6.029,13.3044,4.60122,2470.73,2023-12-06T02:42:19Z
2023-12-06T00:42:53Z,42.805,6.029,13.3045,4.60127,2470.754,2023-12-06T02:45:22Z
2023-12-06T00:45:56Z,42.805,6.029,13.3046,4.60122,2470.754,2023-12-06T02:48:25Z
2023-12-06T00:48:59Z,42.805,6.029,13.3051,4.60122,2470.707,2023-12-06T02:51:28Z
2023-12-06T00:52:02Z,42.805,6.029,13.3044,4.60123,2470.73,2023-12-06T02:54:31Z
2023-12-06T00:55:05Z,42.805,6.029,13.3048,4.60122,2470.73,2023-12-06T02:57:34Z
2023-12-06T00:58:08Z,42.805,6.029,13.3048,4.60122,2470.717,2023-12-06T03:00:37Z
2023-12-06T01:01:11Z,42.805,6.029,13.3047,4.60126,2470.717,2023-12-06T03:03:40Z
2023-12-06T01:04:14Z,42.805,6.029,13.3049,4.60122,2470.717,2023-12-06T03:06:43Z
2023-12-06T01:07:17Z,42.805,6.029,13.3048,4.60123,2470.717,2023-12-06T03:09:46Z
2023-12-06T01:10:20Z,42.805,6.029,13.3048,4.60125,2470.74,2023-12-06T03:12:49Z
2023-12-06T01:13:23Z,42.805,6.029,13.3047,4.60123,2470.717,2023-12-06T03:15:52Z
2023-12-06T01:16:27Z,42.805,6.029,13.3051,4.60131,2470.73,2023-12-06T03:18:55Z
2023-12-06T01:19:30Z,42.805,6.029,13.3051,4.60123,2470.717,2023-12-06T03:21:59Z
2023-12-06T01:22:33Z,42.805,6.029,13.3050,4.60129,2470.717,2023-12-06T03:25:02Z
2023-12-06T01:25:36Z,42.805,6.029,13.3047,4.60125,2470.74,2023-12-06T03:28:05Z
2023-12-06T01:28:39Z,42.805,6.029,13.3047,4.60125,2470.74,2023-12-06T03:31:08Z
2023-12-06T01:31:42Z,42.805,6.029,13.3048,4.60126,2470.717,2023-12-06T03:34:11Z
2023-12-06T01:34:45Z,42.805,6.029,13.3048,4.60125,2470.717,2023-12-06T03:37:14Z
2023-12-06T01:37:48Z,42.805,6.029,13.3047,4.60125,2470.74,2023-12-06T03:40:17Z
2023-12-06T01:40:51Z,42.805,6.029,13.3046,4.60126,2470.763,2023-12-06T03:43:20Z
2023-12-06T01:43:54Z,42.805,6.029,13.3048,4.60125,2470.717,2023-12-06T03:46:23Z
2023-12-06T01:46:57Z,42.805,6.029,13.3046,4.60125,2470.754,2023-12-06T03:49:26Z
2023-12-06T01:50:00Z,42.805,6.029,13.3045,4.60126,2470.717,2023-12-06T03:52:29Z
2023-12-06T01:53:03Z,42.805,6.029,13.3054,4.60126,2470.74,2023-12-06T03:55:32Z
2023-12-06T01:56:06Z,42.805,6.029,13.3053,4.60126,2470.717,2023-12-06T03:58:35Z
2023-12-06T01:59:10Z,42.805,6.029,13.3048,4.60127,2470.717,2023-12-06T04:01:39Z
2023-12-06T02:02:13Z,42.805,6.029,13.3051,4.60127,2470.754,2023-12-06T04:04:42Z
2023-12-06T02:05:16Z,42.805,6.029,13.3050,4.60127,2470.74,2023-12-06T04:07:45Z
2023-12-06T02:08:19Z,42.805,6.029,13.3051,4.60128,2470.754,2023-12-06T04:10:48Z
2023-12-06T02:11:22Z,42.805,6.029,13.3052,4.60127,2470.707,2023-12-06T04:13:51Z
2023-12-06T02:14:25Z,42.805,6.029,13.3053,4.60135,2470.74,2023-12-06T04:16:54Z
2023-12-06T02:17:28Z,42.805,6.029,13.3047,4.60134,2470.717,2023-12-06T04:19:57Z
2023-12-06T02:20:31Z,42.805,6.029,13.3053,4.60132,2470.717,2023-12-06T04:23:00Z
2023-12-06T02:23:34Z,42.805,6.029,13.3054,4.60132,2470.717,2023-12-06T04:26:03Z
2023-12-06T02:26:37Z,42.805,6.029,13.3050,4.60132,2470.74,2023-12-06T04:29:06Z
2023-12-06T02:29:40Z,42.805,6.029,13.3050,4.60131,2470.717,2023-12-06T04:32:09Z
2023-12-06T02:32:43Z,42.805,6.029,13.3047,4.60132,2470.74,2023-12-06T04:35:12Z
2023-12-06T02:35:46Z,42.805,6.029,13.3048,4.60132,2470.73,2023-12-06T04:38:15Z
2023-12-06T02:38:50Z,42.805,6.029,13.3050,4.60129,2470.717,2023-12-06T04:41:19Z
2023-12-06T02:41:53Z,42.805,6.029,13.3052,4.60131,2470.74,2023-12-06T04:44:22Z
2023-12-06T02:44:56Z,42.805,6.029,13.3051,4.60133,2470.693,2023-12-06T04:47:25Z
2023-12-06T02:47:59Z,42.805,6.029,13.3051,4.60135,2470.717,2023-12-06T04:50:28Z
2023-12-06T02:51:02Z,42.805,6.029,13.3052,4.60135,2470.717,2023-12-06T04:53:31Z
2023-12-06T02:54:05Z,42.805,6.029,13.3053,4.60135,2470.717,2023-12-06T04:56:34Z
2023-12-06T02:57:08Z,42.805,6.029,13.3054,4.60133,2470.717,2023-12-06T04:59:37Z
2023-12-06T03:00:11Z,42.805,6.029,13.3051,4.60139,2470.763,2023-12-06T05:02:40Z
2023-12-06T03:03:14Z,42.805,6.029,13.3051,4.60132,2470.74,2023-12-06T05:05:43Z
2023-12-06T03:06:17Z,42.805,6.029,13.3051,4.60132,2470.754,2023-12-06T05:08:46Z
2023-12-06T03:09:20Z,42.805,6.029,13.3050,4.60132,2470.717,2023-12-06T05:11:49Z
2023-12-06T03:12:23Z,42.805,6.029,13.3048,4.60142,2470.679,2023-12-06T05:14:52Z
2023-12-06T03:15:27Z,42.805,6.029,13.3067,4.60137,2470.717,2023-12-06T05:17:55Z
2023-12-06T03:18:30Z,42.805,6.029,13.3054,4.60145,2470.717,2023-12-06T05:20:59Z
2023-12-06T03:21:33Z,42.805,6.029,13.3058,4.60139,2470.754,2023-12-06T05:24:02Z
2023-12-06T03:24:36Z,42.805,6.029,13.3054,4.60137,2470.717,2023-12-06T05:27:05Z
2023-12-06T03:27:39Z,42.805,6.029,13.3057,4.60153,2470.693,2023-12-06T05:30:08Z
2023-12-06T03:30:42Z,42.805,6.029,13.3076,4.60157,2470.73,2023-12-06T05:33:11Z
2023-12-06T03:33:45Z,42.805,6.029,13.3058,4.60137,2470.73,2023-12-06T05:36:14Z
2023-12-06T03:36:48Z,42.805,6.029,13.3061,4.60152,2470.74,2023-12-06T05:39:17Z
2023-12-06T03:39:51Z,42.805,6.029,13.3051,4.60135,2470.717,2023-12-06T05:42:20Z
2023-12-06T03:42:54Z,42.805,6.029,13.3084,4.60144,2470.693,2023-12-06T05:45:23Z
2023-12-06T03:45:57Z,42.805,6.029,13.3082,4.60161,2470.707,2023-12-06T05:48:26Z
2023-12-06T03:49:00Z,42.805,6.029,13.3080,4.60203,2470.717,2023-12-06T05:51:29Z
2023-12-06T03:52:03Z,42.805,6.029,13.3091,4.60202,2470.73,2023-12-06T05:54:32Z
2023-12-06T03:55:06Z,42.805,6.029,13.3079,4.60208,2470.73,2023-12-06T05:57:35Z
2023-12-06T03:58:10Z,42.805,6.029,13.3083,4.60166,2470.73,2023-12-06T06:00:39Z
2023-12-06T04:01:13Z,42.805,6.029,13.3081,4.60175,2470.67,2023-12-06T06:03:42Z
2023-12-06T04:04:16Z,42.805,6.029,13.3083,4.60155,2470.693,2023-12-06T06:06:45Z
2023-12-06T04:07:19Z,42.805,6.029,13.3084,4.60172,2470.717,2023-12-06T06:09:48Z
2023-12-06T04:10:22Z,42.805,6.029,13.3086,4.60211,2470.707,2023-12-06T06:12:51Z
2023-12-06T04:13:25Z,42.805,6.029,13.3076,4.60167,2470.73,2023-12-06T06:15:54Z
2023-12-06T04:16:28Z,42.805,6.029,13.3085,4.60164,2470.754,2023-12-06T06:18:57Z
2023-12-06T04:19:31Z,42.805,6.029,13.3074,4.60169,2470.717,2023-12-06T06:22:00Z
2023-12-06T04:22:34Z,42.805,6.029,13.3073,4.60195,2470.693,2023-12-06T06:25:03Z
2023-12-06T04:25:37Z,42.805,6.029,13.3073,4.60211,2470.707,2023-12-06T06:28:06Z
2023-12-06T04:28:40Z,42.805,6.029,13.3083,4.60198,2470.74,2023-12-06T06:31:09Z
2023-12-06T04:31:43Z,42.805,6.029,13.3064,4.60203,2470.707,2023-12-06T06:34:12Z
2023-12-06T04:34:46Z,42.805,6.029,13.3065,4.60206,2470.693,2023-12-06T06:37:15Z
2023-12-06T04:37:50Z,42.805,6.029,13.3071,4.60205,2470.717,2023-12-06T06:40:19Z
2023-12-06T04:40:53Z,42.805,6.029,13.3065,4.60208,2470.707,2023-12-06T06:43:22Z
2023-12-06T04:43:56Z,42.805,6.029,13.3063,4.60192,2470.717,2023-12-06T06:46:25Z
2023-12-06T04:46:59Z,42.805,6.029,13.3067,4.60210,2470.717,2023-12-06T06:49:28Z
2023-12-06T04:50:02Z,42.805,6.029,13.3087,4.60221,2470.717,2023-12-06T06:52:31Z
2023-12-06T04:53:05Z,42.805,6.029,13.3082,4.60185,2470.754,2023-12-06T06:55:34Z
2023-12-06T04:56:08Z,42.805,6.029,13.3072,4.60213,2470.693,2023-12-06T06:58:37Z
2023-12-06T04:59:11Z,42.805,6.029,13.3070,4.60184,2470.707,2023-12-06T07:01:40Z
2023-12-06T05:02:14Z,42.805,6.029,13.3074,4.60198,2470.717,2023-12-06T07:04:43Z
2023-12-06T05:05:17Z,42.805,6.029,13.3067,4.60199,2470.717,2023-12-06T07:07:46Z
2023-12-06T05:08:20Z,42.805,6.029,13.3078,4.60191,2470.717,2023-12-06T07:10:49Z
2023-12-06T05:11:23Z,42.805,6.029,13.3067,4.60195,2470.717,2023-12-06T07:13:52Z
2023-12-06T05:14:26Z,42.805,6.029,13.3069,4.60190,2470.693,2023-12-06T07:16:55Z
2023-12-06T05:17:30Z,42.805,6.029,13.3060,4.60184,2470.717,2023-12-06T07:19:58Z
2023-12-06T05:20:33Z,42.805,6.029,13.3070,4.60187,2470.717,2023-12-06T07:23:02Z
2023-12-06T05:23:36Z,42.805,6.029,13.3063,4.60180,2470.73,2023-12-06T07:26:05Z
2023-12-06T05:26:39Z,42.805,6.029,13.3069,4.60190,2470.707,2023-12-06T07:29:08Z
2023-12-06T05:29:42Z,42.805,6.029,13.3061,4.60216,2470.717,2023-12-06T07:32:11Z
2023-12-06T05:32:45Z,42.805,6.029,13.3067,4.60176,2470.707,2023-12-06T07:35:14Z
2023-12-06T05:35:48Z,42.805,6.029,13.3055,4.60175,2470.707,2023-12-06T07:38:17Z
2023-12-06T05:38:51Z,42.805,6.029,13.3058,4.60178,2470.693,2023-12-06T07:41:20Z
2023-12-06T05:41:54Z,42.805,6.029,13.3071,4.60170,2470.67,2023-12-06T07:44:23Z
2023-12-06T05:44:57Z,42.805,6.029,13.3051,4.60154,2470.693,2023-12-06T07:47:26Z
2023-12-06T05:48:00Z,42.805,6.029,13.3054,4.60160,2470.693,2023-12-06T07:50:29Z
2023-12-06T05:51:03Z,42.805,6.029,13.3061,4.60169,2470.693,2023-12-06T07:53:32Z
2023-12-06T05:54:06Z,42.805,6.029,13.3063,4.60160,2470.717,2023-12-06T07:56:35Z
2023-12-06T05:57:09Z,42.805,6.029,13.3053,4.60142,2470.693,2023-12-06T07:59:38Z
2023-12-06T06:00:13Z,42.805,6.029,13.3058,4.60150,2470.717,2023-12-06T08:02:42Z
2023-12-06T06:03:16Z,42.805,6.029,13.3054,4.60157,2470.693,2023-12-06T08:05:45Z
2023-12-06T06:06:19Z,42.805,6.029,13.3054,4.60160,2470.693,2023-12-06T08:08:48Z
2023-12-06T06:09:22Z,42.805,6.029,13.3062,4.60169,2470.684,2023-12-06T08:11:51Z
2023-12-06T06:12:25Z,42.805,6.029,13.3058,4.60170,2470.707,2023-12-06T08:14:54Z
2023-12-06T06:15:28Z,42.805,6.029,13.3066,4.60183,2470.693,2023-12-06T08:17:57Z
2023-12-06T06:18:31Z,42.805,6.029,13.3061,4.60168,2470.707,2023-12-06T08:21:00Z
2023-12-06T06:21:34Z,42.805,6.029,13.3069,4.60180,2470.707,2023-12-06T08:24:03Z
2023-12-06T06:24:37Z,42.805,6.029,13.3058,4.60180,2470.67,2023-12-06T08:27:06Z
2023-12-06T06:27:40Z,42.805,6.029,13.3060,4.60190,2470.693,2023-12-06T08:30:09Z
2023-12-06T06:30:43Z,42.805,6.029,13.3070,4.60170,2470.693,2023-12-06T08:33:12Z
2023-12-06T06:33:46Z,42.805,6.029,13.3073,4.60170,2470.646,2023-12-06T08:36:15Z
2023-12-06T06:36:50Z,42.805,6.029,13.3065,4.60155,2470.73,2023-12-06T08:39:18Z
2023-12-06T06:39:53Z,42.805,6.029,13.3052,4.60156,2470.73,2023-12-06T08:42:22Z
2023-12-06T06:42:56Z,42.805,6.029,13.3069,4.60165,2470.693,2023-12-06T08:45:25Z
2023-12-06T06:45:59Z,42.805,6.029,13.3063,4.60170,2470.73,2023-12-06T08:48:28Z
2023-12-06T06:49:02Z,42.805,6.029,13.3070,4.60159,2470.684,2023-12-06T08:51:31Z
2023-12-06T06:52:05Z,42.805,6.029,13.3058,4.60169,2470.693,2023-12-06T08:54:34Z
2023-12-06T06:55:08Z,42.805,6.029,13.3070,4.60228,2470.754,2023-12-06T08:57:37Z
2023-12-06T06:58:11Z,42.805,6.029,13.3098,4.60216,2470.73,2023-12-06T09:00:40Z
2023-12-06T07:01:14Z,42.805,6.029,13.3060,4.60204,2470.717,2023-12-06T09:03:43Z
2023-12-06T07:04:17Z,42.805,6.029,13.3063,4.60168,2470.707,2023-12-06T09:06:46Z
2023-12-06T07:07:20Z,42.805,6.029,13.3082,4.60188,2470.73,2023-12-06T09:09:49Z
2023-12-06T07:10:23Z,42.805,6.029,13.3069,4.60176,2470.67,2023-12-06T09:12:52Z
2023-12-06T07:13:26Z,42.805,6.029,13.3073,4.60205,2470.707,2023-12-06T09:15:55Z
2023-12-06T07:16:29Z,42.805,6.029,13.3080,4.60195,2470.707,2023-12-06T09:18:58Z
2023-12-06T07:19:33Z,42.805,6.029,13.3087,4.60193,2470.707,2023-12-06T09:22:02Z
2023-12-06T07:22:36Z,42.805,6.029,13.3073,4.60198,2470.717,2023-12-06T09:25:05Z
2023-12-06T07:25:39Z,42.805,6.029,13.3113,4.60223,2470.73,2023-12-06T09:28:08Z
2023-12-06T07:28:42Z,42.805,6.029,13.3086,4.60213,2470.693,2023-12-06T09:31:11Z
2023-12-06T07:31:45Z,42.805,6.029,13.3080,4.60217,2470.717,2023-12-06T09:34:14Z
2023-12-06T07:34:48Z,42.805,6.029,13.3081,4.60218,2470.73,2023-12-06T09:37:17Z
2023-12-06T07:37:51Z,42.805,6.029,13.3099,4.60205,2470.707,2023-12-06T09:40:20Z
2023-12-06T07:40:54Z,42.805,6.029,13.3101,4.60167,2470.754,2023-12-06T09:43:23Z
2023-12-06T07:43:57Z,42.805,6.029,13.3095,4.60210,2470.707,2023-12-06T09:46:26Z
2023-12-06T07:47:00Z,42.805,6.029,13.3096,4.60186,2470.73,2023-12-06T09:49:29Z
2023-12-06T07:50:03Z,42.805,6.029,13.3093,4.60224,2470.73,2023-12-06T09:52:32Z
2023-12-06T07:53:06Z,42.805,6.029,13.3098,4.60185,2470.693,2023-12-06T09:55:35Z
2023-12-06T07:56:09Z,42.805,6.029,13.3087,4.60211,2470.717,2023-12-06T09:58:38Z
2023-12-06T07:59:13Z,42.805,6.029,13.3101,4.60191,2470.693,2023-12-06T10:01:42Z
2023-12-06T08:02:16Z,42.805,6.029,13.3083,4.60180,2470.717,2023-12-06T10:04:45Z
2023-12-06T08:05:19Z,42.805,6.029,13.3089,4.60183,2470.707,2023-12-06T10:07:48Z
2023-12-06T08:08:22Z,42.805,6.029,13.3113,4.60197,2470.73,2023-12-06T10:10:51Z
2023-12-06T08:11:25Z,42.805,6.029,13.3096,4.60163,2470.717,2023-12-06T10:13:54Z
2023-12-06T08:14:28Z,42.805,6.029,13.3089,4.60168,2470.726,2023-12-06T10:16:57Z
2023-12-06T08:17:31Z,42.805,6.029,13.3102,4.60144,2470.754,2023-12-06T10:20:00Z
2023-12-06T08:20:34Z,42.805,6.029,13.3090,4.60173,2470.74,2023-12-06T10:23:03Z
2023-12-06T08:23:37Z,42.805,6.029,13.3106,4.60177,2470.754,2023-12-06T10:26:06Z
2023-12-06T08:26:40Z,42.805,6.029,13.3056,4.60174,2470.73,2023-12-06T10:29:09Z
2023-12-06T08:29:43Z,42.805,6.029,13.3070,4.60199,2470.707,2023-12-06T10:32:12Z
2023-12-06T08:32:46Z,42.805,6.029,13.3093,4.60186,2470.717,2023-12-06T10:35:15Z
2023-12-06T08:35:50Z,42.805,6.029,13.3071,4.60155,2470.717,2023-12-06T10:38:19Z
2023-12-06T08:38:53Z,42.805,6.029,13.3062,4.60168,2470.754,2023-12-06T10:41:22Z
2023-12-06T08:41:56Z,42.805,6.029,13.3077,4.60153,2470.777,2023-12-06T10:44:25Z
2023-12-06T08:44:59Z,42.805,6.029,13.3089,4.60176,2470.73,2023-12-06T10:47:28Z
2023-12-06T08:48:02Z,42.805,6.029,13.3088,4.60147,2470.717,2023-12-06T10:50:31Z
2023-12-06T08:51:05Z,42.805,6.029,13.3086,4.60170,2470.707,2023-12-06T10:53:34Z
2023-12-06T08:54:08Z,42.805,6.029,13.3078,4.60159,2470.74,2023-12-06T10:56:37Z
2023-12-06T08:57:11Z,42.805,6.029,13.3073,4.60161,2470.754,2023-12-06T10:59:40Z
2023-12-06T09:00:14Z,42.805,6.029,13.3096,4.60168,2470.73,2023-12-06T11:02:43Z
2023-12-06T09:03:17Z,42.805,6.029,13.3116,4.60144,2470.754,2023-12-06T11:05:46Z
2023-12-06T09:06:20Z,42.805,6.029,13.3083,4.60142,2470.717,2023-12-06T11:08:49Z
2023-12-06T09:09:23Z,42.805,6.029,13.3076,4.60160,2470.74,2023-12-06T11:11:52Z
2023-12-06T09:12:26Z,42.805,6.029,13.3082,4.60142,2470.763,2023-12-06T11:14:55Z
2023-12-06T09:15:30Z,42.805,6.029,13.3066,4.60170,2470.763,2023-12-06T11:17:59Z
2023-12-06T09:18:33Z,42.805,6.029,13.3082,4.60160,2470.74,2023-12-06T11:21:02Z
2023-12-06T09:21:36Z,42.805,6.029,13.3076,4.60154,2470.74,2023-12-06T11:24:05Z
2023-12-06T09:24:39Z,42.805,6.029,13.3061,4.60178,2470.74,2023-12-06T11:27:08Z
2023-12-06T09:27:42Z,42.805,6.029,13.3071,4.60154,2470.717,2023-12-06T11:30:11Z
2023-12-06T09:30:44Z,42.805,6.029,13.3083,4.60147,2470.74,2023-12-06T11:33:13Z
2023-12-06T09:33:47Z,42.805,6.029,13.3096,4.60147,2470.74,2023-12-06T11:36:16Z
2023-12-06T09:36:50Z,42.805,6.029,13.3084,4.60135,2470.763,2023-12-06T11:39:19Z
2023-12-06T09:39:53Z,42.805,6.029,13.3086,4.60140,2470.754,2023-12-06T11:42:22Z
2023-12-06T09:42:56Z,42.805,6.029,13.3090,4.60144,2470.763,2023-12-06T11:45:25Z
2023-12-06T09:45:59Z,42.805,6.029,13.3088,4.60140,2470.74,2023-12-06T11:48:28Z
2023-12-06T09:49:02Z,42.805,6.029,13.3084,4.60151,2470.754,2023-12-06T11:51:31Z
2023-12-06T09:52:05Z,42.805,6.029,13.3070,4.60149,2470.777,2023-12-06T11:54:34Z
2023-12-06T09:55:08Z,42.805,6.029,13.3100,4.60155,2470.763,2023-12-06T11:57:37Z
2023-12-06T09:58:11Z,42.805,6.029,13.3090,4.60167,2470.74,2023-12-06T12:00:40Z
2023-12-06T10:01:14Z,42.805,6.029,13.3115,4.60175,2470.763,2023-12-06T12:03:43Z
2023-12-06T10:04:17Z,42.805,6.029,13.3109,4.60160,2470.74,2023-12-06T12:06:46Z
2023-12-06T10:07:21Z,42.805,6.029,13.3058,4.60174,2470.74,2023-12-06T12:09:50Z
2023-12-06T10:10:24Z,42.805,6.029,13.3052,4.60173,2470.777,2023-12-06T12:12:53Z
2023-12-06T10:13:27Z,42.805,6.029,13.3048,4.60165,2470.787,2023-12-06T12:15:56Z
2023-12-06T10:16:30Z,42.805,6.029,13.3042,4.60180,2470.763,2023-12-06T12:18:59Z
2023-12-06T10:19:33Z,42.805,6.029,13.3043,4.60190,2470.754,2023-12-06T12:22:02Z
2023-12-06T10:22:36Z,42.805,6.029,13.3045,4.60208,2470.8,2023-12-06T12:25:05Z
2023-12-06T10:25:39Z,42.805,6.029,13.3044,4.60167,2470.81,2023-12-06T12:28:08Z
2023-12-06T10:28:42Z,42.805,6.029,13.3043,4.60150,2470.763,2023-12-06T12:31:11Z
2023-12-06T10:31:45Z,42.805,6.029,13.3043,4.60155,2470.787,2023-12-06T12:34:14Z
2023-12-06T10:34:48Z,42.805,6.029,13.3043,4.60148,2470.787,2023-12-06T12:37:17Z
2023-12-06T10:37:51Z,42.805,6.029,13.3043,4.60141,2470.787,2023-12-06T12:40:20Z
2023-12-06T10:40:54Z,42.805,6.029,13.3042,4.60140,2470.777,2023-12-06T12:43:23Z
2023-12-06T10:43:58Z,42.805,6.029,13.3045,4.60140,2470.787,2023-12-06T12:46:27Z
2023-12-06T10:47:01Z,42.805,6.029,13.3045,4.60148,2470.754,2023-12-06T12:49:30Z
2023-12-06T10:50:04Z,42.805,6.029,13.3045,4.60137,2470.763,2023-12-06T12:52:33Z
2023-12-06T10:53:07Z,42.805,6.029,13.3043,4.60132,2470.8,2023-12-06T12:55:36Z
2023-12-06T10:56:10Z,42.805,6.029,13.3043,4.60137,2470.777,2023-12-06T12:58:39Z
2023-12-06T10:59:13Z,42.805,6.029,13.3041,4.60132,2470.763,2023-12-06T13:01:42Z
2023-12-06T11:02:16Z,42.805,6.029,13.3047,4.60140,2470.787,2023-12-06T13:04:45Z
2023-12-06T11:05:19Z,42.805,6.029,13.3043,4.60140,2470.8,2023-12-06T13:07:48Z
2023-12-06T11:08:22Z,42.805,6.029,13.3044,4.60132,2470.787,2023-12-06T13:10:51Z
2023-12-06T11:11:25Z,42.805,6.029,13.3043,4.60137,2470.763,2023-12-06T13:13:54Z
2023-12-06T11:14:28Z,42.805,6.029,13.3041,4.60138,2470.81,2023-12-06T13:16:57Z
2023-12-06T11:17:31Z,42.805,6.029,13.3042,4.60139,2470.777,2023-12-06T13:20:00Z
2023-12-06T11:20:34Z,42.805,6.029,13.3044,4.60144,2470.787,2023-12-06T13:23:03Z
2023-12-06T11:23:38Z,42.805,6.029,13.3043,4.60140,2470.81,2023-12-06T13:26:07Z
2023-12-06T11:26:41Z,42.805,6.029,13.3039,4.60126,2470.81,2023-12-06T13:29:10Z
2023-12-06T11:29:44Z,42.805,6.029,13.3045,4.60129,2470.833,2023-12-06T13:32:13Z
2023-12-06T11:32:47Z,42.805,6.029,13.3043,4.60132,2470.81,2023-12-06T13:35:16Z
2023-12-06T11:35:50Z,42.805,6.029,13.3043,4.60126,2470.8,2023-12-06T13:38:19Z
2023-12-06T11:38:53Z,42.805,6.029,13.3039,4.60125,2470.8,2023-12-06T13:41:22Z
2023-12-06T11:41:56Z,42.805,6.029,13.3045,4.60139,2470.81,2023-12-06T13:44:25Z
2023-12-06T11:44:59Z,42.805,6.029,13.3042,4.60125,2470.763,2023-12-06T13:47:28Z
2023-12-06T11:48:02Z,42.805,6.029,13.3042,4.60134,2470.787,2023-12-06T13:50:31Z
2023-12-06T11:51:06Z,42.805,6.029,13.3043,4.60127,2470.81,2023-12-06T13:53:35Z
2023-12-06T11:54:09Z,42.805,6.029,13.3043,4.60127,2470.81,2023-12-06T13:56:38Z
2023-12-06T11:57:12Z,42.805,6.029,13.3044,4.60126,2470.824,2023-12-06T13:59:41Z
2023-12-06T12:00:15Z,42.805,6.029,13.3045,4.60126,2470.8,2023-12-06T14:02:44Z
2023-12-06T12:03:18Z,42.805,6.029,13.3039,4.60125,2470.833,2023-12-06T14:05:47Z
2023-12-06T12:06:21Z,42.805,6.029,13.3044,4.60126,2470.847,2023-12-06T14:08:50Z
2023-12-06T12:09:24Z,42.805,6.029,13.3046,4.60125,2470.838,2023-12-06T14:11:53Z
2023-12-06T12:12:27Z,42.805,6.029,13.3041,4.60124,2470.81,2023-12-06T14:14:56Z
2023-12-06T12:15:30Z,42.805,6.029,13.3043,4.60123,2470.847,2023-12-06T14:17:59Z
2023-12-06T12:18:33Z,42.805,6.029,13.3045,4.60127,2470.833,2023-12-06T14:21:02Z
2023-12-06T12:21:36Z,42.805,6.029,13.3046,4.60127,2470.833,2023-12-06T14:24:05Z
2023-12-06T12:24:39Z,42.805,6.029,13.3044,4.60124,2470.847,2023-12-06T14:27:08Z
2023-12-06T12:27:42Z,42.805,6.029,13.3043,4.60123,2470.857,2023-12-06T14:30:12Z
2023-12-06T12:30:46Z,42.805,6.029,13.3042,4.60122,2470.81,2023-12-06T14:33:15Z
2023-12-06T12:33:49Z,42.805,6.029,13.3045,4.60134,2470.847,2023-12-06T14:36:18Z
2023-12-06T12:36:52Z,42.805,6.029,13.3041,4.60129,2470.833,2023-12-06T14:39:21Z
2023-12-06T12:39:55Z,42.805,6.029,13.3045,4.60123,2470.833,2023-12-06T14:42:24Z
2023-12-06T12:42:58Z,42.805,6.029,13.3044,4.60121,2470.833,2023-12-06T14:45:27Z
2023-12-06T12:46:01Z,42.805,6.029,13.3045,4.60122,2470.857,2023-12-06T14:48:30Z
2023-12-06T12:49:04Z,42.805,6.029,13.3047,4.60123,2470.833,2023-12-06T14:51:33Z
2023-12-06T12:52:07Z,42.805,6.029,13.3044,4.60123,2470.833,2023-12-06T14:54:36Z
2023-12-06T12:55:10Z,42.805,6.029,13.3047,4.60123,2470.88,2023-12-06T14:57:39Z
2023-12-06T12:58:13Z,42.805,6.029,13.3041,4.60121,2470.833,2023-12-06T15:00:42Z
2023-12-06T13:01:16Z,42.805,6.029,13.3046,4.60122,2470.871,2023-12-06T15:03:45Z
2023-12-06T13:04:19Z,42.805,6.029,13.3049,4.60122,2470.88,2023-12-06T15:06:49Z
2023-12-06T13:07:23Z,42.805,6.029,13.3045,4.60122,2470.833,2023-12-06T15:09:52Z
2023-12-06T13:10:26Z,42.805,6.029,13.3043,4.60122,2470.833,2023-12-06T15:12:55Z
2023-12-06T13:13:29Z,42.805,6.029,13.3042,4.60122,2470.871,2023-12-06T15:15:58Z
2023-12-06T13:16:32Z,42.805,6.029,13.3044,4.60122,2470.857,2023-12-06T15:19:01Z
2023-12-06T13:19:35Z,42.805,6.029,13.3044,4.60122,2470.833,2023-12-06T15:22:04Z
2023-12-06T13:22:38Z,42.805,6.029,13.3039,4.60125,2470.833,2023-12-06T15:25:07Z
2023-12-06T13:25:41Z,42.805,6.029,13.3043,4.60123,2470.871,2023-12-06T15:28:10Z
2023-12-06T13:28:44Z,42.805,6.029,13.3041,4.60122,2470.847,2023-12-06T15:31:13Z
2023-12-06T13:31:46Z,42.805,6.029,13.3041,4.60125,2470.857,2023-12-06T15:34:15Z
2023-12-06T13:34:49Z,42.805,6.029,13.3046,4.60122,2470.833,2023-12-06T15:37:18Z
2023-12-06T13:37:52Z,42.805,6.029,13.3041,4.60124,2470.833,2023-12-06T15:40:21Z
2023-12-06T13:40:55Z,42.805,6.029,13.3046,4.60123,2470.824,2023-12-06T15:43:24Z
2023-12-06T13:43:59Z,42.805,6.029,13.3043,4.60123,2470.81,2023-12-06T15:46:28Z
2023-12-06T13:47:02Z,42.805,6.029,13.3047,4.60123,2470.843,2023-12-06T15:49:31Z
2023-12-06T13:50:05Z,42.805,6.029,13.3046,4.60128,2470.88,2023-12-06T15:52:34Z
2023-12-06T13:53:08Z,42.805,6.029,13.3043,4.60123,2470.871,2023-12-06T15:55:37Z
2023-12-06T13:56:11Z,42.805,6.029,13.3043,4.60123,2470.833,2023-12-06T15:58:40Z
2023-12-06T13:59:14Z,42.805,6.029,13.3042,4.60125,2470.833,2023-12-06T16:01:43Z
2023-12-06T14:02:17Z,42.805,6.029,13.3046,4.60125,2470.857,2023-12-06T16:04:46Z
2023-12-06T14:05:20Z,42.805,6.029,13.3042,4.60122,2470.857,2023-12-06T16:07:49Z
2023-12-06T14:08:23Z,42.805,6.029,13.3046,4.60123,2470.917,2023-12-06T16:10:52Z
2023-12-06T14:11:26Z,42.805,6.029,13.3043,4.60123,2470.88,2023-12-06T16:13:55Z
2023-12-06T14:14:29Z,42.805,6.029,13.3042,4.60125,2470.857,2023-12-06T16:16:58Z
2023-12-06T14:17:32Z,42.805,6.029,13.3045,4.60123,2470.857,2023-12-06T16:20:01Z
2023-12-06T14:20:35Z,42.805,6.029,13.3044,4.60122,2470.857,2023-12-06T16:23:05Z
2023-12-06T14:23:39Z,42.805,6.029,13.3041,4.60127,2470.857,2023-12-06T16:26:08Z
2023-12-06T14:26:42Z,42.805,6.029,13.3044,4.60121,2470.871,2023-12-06T16:29:11Z
2023-12-06T14:29:45Z,42.805,6.029,13.3041,4.60125,2470.88,2023-12-06T16:32:14Z
2023-12-06T14:32:48Z,42.805,6.029,13.3041,4.60122,2470.88,2023-12-06T16:35:17Z
2023-12-06T14:35:51Z,42.805,6.029,13.3040,4.60122,2470.894,2023-12-06T16:38:20Z
2023-12-06T14:38:54Z,42.805,6.029,13.3041,4.60121,2470.857,2023-12-06T16:41:23Z
2023-12-06T14:41:57Z,42.805,6.029,13.3041,4.60122,2470.857,2023-12-06T16:44:26Z
2023-12-06T14:45:00Z,42.805,6.029,13.3040,4.60119,2470.81,2023-12-06T16:47:29Z
2023-12-06T14:48:03Z,42.805,6.029,13.3043,4.60122,2470.88,2023-12-06T16:50:32Z
2023-12-06T14:51:06Z,42.805,6.029,13.3040,4.60120,2470.927,2023-12-06T16:53:35Z
2023-12-06T14:54:09Z,42.805,6.029,13.3039,4.60119,2470.871,2023-12-06T16:56:38Z
2023-12-06T14:57:12Z,42.805,6.029,13.3043,4.60135,2470.857,2023-12-06T16:59:41Z
2023-12-06T15:00:16Z,42.805,6.029,13.3048,4.60126,2470.847,2023-12-06T17:02:45Z